Weather History for KVPZ - December, 2012

Change the Weather History Date:

Tuesday, December 4, 2012

  Actual Average Record
Temperature  
Mean Temperature 53 °F 32 °F  
Max Temperature 64 °F 39 °F 64 °F (2012)
Min Temperature 41 °F 25 °F 9 °F (2005)
Degree Days  
Heating Degree Days 12 33  
Month to date heating degree days 50 130  
Since 1 July heating degree days 1354 1388  
Cooling Degree Days 0 0  
Month to date cooling degree days 0 0  
Year to date cooling degree days 1054 713  
Growing Degree Days 2 (Base 50)    
Moisture  
Dew Point 44 °F    
Average Humidity 74    
Maximum Humidity 94    
Minimum Humidity 40    
Precipitation  
Precipitation 0.56 in 0.09 in 0.56 in (2012)
Month to date precipitation 0.64 0.35  
Year to date precipitation 24.83 35.68  
Sea Level Pressure  
Sea Level Pressure 30.05 in    
Wind  
Wind Speed 7 mph (WNW)    
Max Wind Speed 20 mph    
Max Gust Speed 25 mph    
Visibility 8 miles    
Events Rain    
T = Trace of Precipitation, MM = Missing Value Source: NWS Daily Summary

Daily Weather History Graph

Daily Weather History Graph

Search for Another Location

Airport or City:

Trip Planner

Search our weather history database for the weather conditions in past years. The results will help you decide how hot, cold, wet, or windy it might be!

Date:

Astronomy

Dec. 04, 2012 Rise Set
Actual Time 6:58 AM CST 4:18 PM CST
Civil Twilight 6:27 AM CST 4:49 PM CST
Nautical Twilight 5:52 AM CST 5:23 PM CST
Astronomical Twilight 5:19 AM CST 5:57 PM CST
Moon 10:08 PM CST (12/4) 10:49 AM CST (12/4)
Length of Visible Light 10h 22m
Length of Day
9h 20m
Waning Gibbous, 69% of the Moon is Illuminated
Dec 4
Waning Gibbous
Dec 6
Last Quarter
Dec 13
New
Dec 19
First Quarter
Dec 28
Full

Hourly Weather History & Observations

Time (CST) Temp. Windchill Dew Point Humidity Pressure Visibility Wind Dir Wind Speed Gust Speed Precip Events Conditions
12:43 AM 62.6 °F - 57.2 °F 82% 29.92 in 5.0 mi SW 13.8 mph - 0.03 in Rain Rain
12:53 AM 61.0 °F - 57.9 °F 90% 29.91 in 4.0 mi SW 13.8 mph - 0.07 in Rain Rain
1:53 AM 60.1 °F - 57.9 °F 93% 29.92 in 5.0 mi WSW 9.2 mph - 0.00 in Rain Light Rain
2:00 AM 60.8 °F - 57.2 °F 88% 29.93 in 4.0 mi WSW 10.4 mph - 0.01 in Rain Light Rain
2:08 AM 60.8 °F - 57.2 °F 88% 29.93 in 4.0 mi WSW 8.1 mph - 0.01 in Rain Light Rain
2:26 AM 60.8 °F - 57.2 °F 88% 29.93 in 7.0 mi WSW 8.1 mph - 0.01 in   Overcast
2:53 AM 59.0 °F - 57.0 °F 93% 29.93 in 4.0 mi NW 6.9 mph - 0.07 in Rain Light Rain
2:57 AM 59.0 °F - 57.2 °F 94% 29.94 in 2.5 mi WNW 8.1 mph - 0.01 in Rain Rain
3:05 AM 55.4 °F - 53.6 °F 94% 29.95 in 3.0 mi NNW 16.1 mph 23.0 mph 0.04 in Rain Light Rain
3:20 AM 53.6 °F - 51.8 °F 94% 29.95 in 3.0 mi North 11.5 mph 17.3 mph 0.07 in Rain Light Rain
3:53 AM 51.1 °F - 48.0 °F 89% 29.97 in 4.0 mi NNW 10.4 mph 18.4 mph 0.13 in Rain Light Rain
4:20 AM 50.0 °F - 44.6 °F 82% 29.99 in 6.0 mi NNW 11.5 mph 17.3 mph 0.07 in Rain Light Rain
4:53 AM 50.0 °F - 46.0 °F 86% 30.01 in 5.0 mi NNW 9.2 mph - 0.14 in Rain Light Rain
5:53 AM 48.9 °F - 45.0 °F 86% 30.03 in 8.0 mi North 6.9 mph - 0.12 in Rain Light Rain
6:53 AM 48.0 °F - 43.0 °F 83% 30.04 in 10.0 mi Calm Calm - 0.03 in Rain Light Rain
7:53 AM 46.9 °F - 43.0 °F 86% 30.07 in 10.0 mi Calm Calm - 0.00 in   Overcast
8:53 AM 48.9 °F - 43.0 °F 80% 30.09 in 10.0 mi Calm Calm - N/A   Mostly Cloudy
9:53 AM 51.1 °F - 39.0 °F 63% 30.10 in 10.0 mi NW 4.6 mph - N/A   Scattered Clouds
10:53 AM 51.1 °F - 42.1 °F 71% 30.09 in 10.0 mi WSW 5.8 mph - N/A   Mostly Cloudy
12:53 PM 55.0 °F - 30.9 °F 40% 30.09 in 10.0 mi NW 12.7 mph 18.4 mph N/A   Clear
1:53 PM 55.0 °F - 33.1 °F 43% 30.08 in 10.0 mi WNW 6.9 mph - N/A   Clear
2:53 PM 55.0 °F - 34.0 °F 45% 30.09 in 10.0 mi WNW 8.1 mph - N/A   Clear
3:53 PM 51.1 °F - 35.1 °F 54% 30.13 in 10.0 mi West 5.8 mph - N/A   Clear
4:53 PM 48.0 °F - 33.1 °F 56% 30.14 in 10.0 mi WSW 6.9 mph - N/A   Clear
5:53 PM 46.0 °F 42.5 °F 33.1 °F 61% 30.16 in 10.0 mi WSW 6.9 mph - N/A   Clear
6:53 PM 42.1 °F 37.1 °F 33.1 °F 70% 30.17 in 10.0 mi West 8.1 mph - N/A   Clear
7:53 PM 45.0 °F 40.1 °F 33.1 °F 63% 30.17 in 10.0 mi West 9.2 mph - N/A   Clear
8:53 PM 46.9 °F - 32.0 °F 56% 30.19 in 10.0 mi WNW 9.2 mph - N/A   Clear
9:53 PM 44.1 °F 39.5 °F 32.0 °F 63% 30.21 in 10.0 mi WNW 8.1 mph - N/A   Clear
10:53 PM 44.1 °F 40.8 °F 32.0 °F 63% 30.25 in 10.0 mi NNW 5.8 mph - N/A   Clear
11:53 PM 43.0 °F 37.2 °F 32.0 °F 65% 30.26 in 10.0 mi North 10.4 mph - N/A   Clear